| time (UTC) | temp F | wind direction | speed MPH | gust MPH | rain 1hr in | rain 24hr in | rain mn in | humidity % | barometer mb |
| 20260509084205 | 39 | 146 | 0.0 | 3.0 | 0.00 | 0.00 | 0.00 | 95 | 1012.7 |
| 20260509083706 | 39 | 161 | 2.0 | 3.0 | 0.00 | 0.00 | 0.00 | 95 | 1012.8 |
| 20260509083205 | 39 | 130 | 2.0 | 3.0 | 0.00 | 0.00 | 0.00 | 95 | 1012.7 |
| 20260509082205 | 38 | 132 | 1.0 | 2.0 | 0.00 | 0.00 | 0.00 | 95 | 1012.8 |
| 20260509081706 | 38 | 234 | 0.0 | 2.0 | 0.00 | 0.00 | 0.00 | 95 | 1012.8 |
| 20260509080705 | 38 | 221 | 1.0 | 3.0 | 0.00 | 0.00 | 0.00 | 94 | 1012.6 |
| 20260509080205 | 37 | 184 | 0.0 | 0.0 | 0.00 | 0.00 | 0.00 | 95 | 1012.5 |
| 20260509075705 | 37 | 163 | 0.0 | 0.0 | 0.00 | 0.00 | 0.00 | 95 | 1012.4 |
| 20260509075205 | 37 | 101 | 0.0 | 0.0 | 0.00 | 0.00 | 0.00 | 95 | 1012.4 |
| 20260509074706 | 36 | 101 | 0.0 | 0.0 | 0.00 | 0.00 | 0.00 | 95 | 1012.3 |
| 20260509074205 | 36 | 101 | 0.0 | 1.0 | 0.00 | 0.00 | 0.00 | 95 | 1012.3 |
| 20260509073705 | 36 | 103 | 0.0 | 1.0 | 0.00 | 0.00 | 0.00 | 95 | 1012.2 |
| 20260509073206 | 36 | 111 | 0.0 | 0.0 | 0.00 | 0.00 | 0.00 | 95 | 1012.3 |
| 20260509072205 | 36 | 138 | 0.0 | 2.0 | 0.00 | 0.00 | 0.00 | 95 | 1012.3 |
| 20260509071705 | 36 | 109 | 1.0 | 2.0 | 0.00 | 0.00 | 0.00 | 95 | 1012.2 |
| 20260509071205 | 36 | 174 | 1.0 | 2.0 | 0.00 | 0.00 | 0.00 | 95 | 1012.2 |
| 20260509070205 | 36 | 134 | 2.0 | 3.0 | 0.00 | 0.00 | 0.00 | 95 | 1012.2 |
| 20260509065705 | 36 | 128 | 2.0 | 3.0 | 0.00 | 0.00 | 0.00 | 95 | 1012.2 |
| 20260509065205 | 36 | 114 | 1.0 | 3.0 | 0.00 | 0.00 | 0.00 | 95 | 1012.3 |
| 20260509064705 | 36 | 108 | 1.0 | 2.0 | 0.00 | 0.00 | 0.00 | 95 | 1012.3 |
| 20260509063705 | 37 | 106 | 1.0 | 2.0 | 0.00 | 0.00 | 0.00 | 96 | 1012.2 |
| 20260509063206 | 37 | 106 | 0.0 | 0.0 | 0.00 | 0.00 | 0.00 | 95 | 1012.3 |
| 20260509062706 | 37 | 106 | 0.0 | 0.0 | 0.00 | 0.00 | 0.00 | 95 | 1012.4 |
| 20260509062205 | 37 | 106 | 0.0 | 0.0 | 0.00 | 0.00 | 0.00 | 95 | 1012.4 |
| 20260509061706 | 37 | 106 | 1.0 | 2.0 | 0.00 | 0.00 | 0.00 | 95 | 1012.5 |
| 20260509061205 | 37 | 107 | 1.0 | 2.0 | 0.00 | 0.00 | 0.00 | 94 | 1012.6 |
| 20260509060706 | 37 | 113 | 1.0 | 2.0 | 0.00 | 0.00 | 0.00 | 94 | 1012.6 |
| 20260509060205 | 38 | 93 | 1.0 | 2.0 | 0.00 | 0.00 | 0.00 | 93 | 1012.6 |
| 20260509055705 | 38 | 96 | 1.0 | 3.0 | 0.00 | 0.00 | 0.00 | 93 | 1012.7 |
| 20260509055205 | 38 | 131 | 1.0 | 2.0 | 0.00 | 0.00 | 0.00 | 93 | 1012.8 |
| 20260509054205 | 38 | 152 | 2.0 | 3.0 | 0.00 | 0.00 | 0.00 | 93 | 1012.9 |
| 20260509053705 | 39 | 194 | 1.0 | 3.0 | 0.00 | 0.00 | 0.00 | 94 | 1012.9 |
| 20260509053205 | 39 | 123 | 0.0 | 2.0 | 0.00 | 0.00 | 0.00 | 94 | 1012.8 |
| 20260509052705 | 39 | 122 | 1.0 | 2.0 | 0.00 | 0.00 | 0.00 | 94 | 1012.8 |
| 20260509052205 | 39 | 94 | 0.0 | 2.0 | 0.00 | 0.00 | 0.00 | 94 | 1012.8 |
| 20260509051705 | 39 | 125 | 1.0 | 2.0 | 0.00 | 0.00 | 0.00 | 94 | 1012.9 |
| 20260509050205 | 39 | 64 | 1.0 | 3.0 | 0.00 | 0.00 | 0.00 | 95 | 1013.0 |
| 20260509045706 | 39 | 150 | 1.0 | 3.0 | 0.00 | 0.00 | 0.00 | 99 | 1012.9 |
| 20260509044205 | 38 | 119 | 1.0 | 2.0 | 0.00 | 0.00 | 0.00 | 95 | 1013.0 |
| 20260509043205 | 38 | 150 | 3.0 | 3.0 | 0.00 | 0.00 | 0.00 | 95 | 1013.0 |
| 20260509042706 | 38 | 175 | 1.0 | 3.0 | 0.00 | 0.00 | 0.00 | 95 | 1013.1 |
| 20260509041705 | 37 | 118 | 1.0 | 2.0 | 0.00 | 0.00 | 0.00 | 95 | 1013.0 |
| 20260509041205 | 37 | 151 | 1.0 | 2.0 | 0.00 | 0.00 | 0.00 | 95 | 1012.9 |
| 20260509040705 | 37 | 143 | 1.0 | 3.0 | 0.00 | 0.00 | 0.00 | 94 | 1012.8 |
| 20260509035705 | 37 | 172 | 1.0 | 3.0 | 0.00 | 0.00 | 0.00 | 94 | 1012.8 |
| 20260509035205 | 37 | 146 | 2.0 | 3.0 | 0.00 | 0.00 | 0.00 | 94 | 1012.7 |
| 20260509034205 | 37 | 121 | 2.0 | 3.0 | 0.00 | 0.00 | 0.00 | 94 | 1012.7 |
| 20260509033705 | 37 | 139 | 3.0 | 3.0 | 0.00 | 0.00 | 0.00 | 94 | 1012.7 |
| 20260509033206 | 37 | 127 | 2.0 | 5.0 | 0.00 | 0.00 | 0.00 | 93 | 1012.6 |
| 20260509032705 | 37 | 138 | 2.0 | 3.0 | 0.00 | 0.00 | 0.00 | 93 | 1012.7 |
| 20260509032205 | 37 | 139 | 3.0 | 3.0 | 0.00 | 0.00 | 0.00 | 92 | 1012.6 |
| 20260509030705 | 38 | 130 | 2.0 | 3.0 | 0.00 | 0.00 | 0.00 | 92 | 1012.7 |
| 20260509030205 | 38 | 125 | 2.0 | 3.0 | 0.00 | 0.00 | 0.00 | 92 | 1012.8 |
| 20260509025705 | 38 | 128 | 2.0 | 3.0 | 0.00 | 0.00 | 0.00 | 92 | 1012.8 |
| 20260509024705 | 38 | 120 | 2.0 | 3.0 | 0.00 | 0.00 | 0.00 | 91 | 1012.8 |
| 20260509024205 | 38 | 115 | 2.0 | 3.0 | 0.00 | 0.00 | 0.00 | 91 | 1012.9 |
| 20260509023205 | 38 | 146 | 0.0 | 3.0 | 0.00 | 0.00 | 0.00 | 90 | 1012.8 |
| 20260509022705 | 39 | 159 | 1.0 | 3.0 | 0.00 | 0.00 | 0.00 | 89 | 1012.8 |
| 20260509022205 | 39 | 135 | 3.0 | 3.0 | 0.00 | 0.00 | 0.00 | 89 | 1012.7 |
| 20260509021705 | 39 | 142 | 2.0 | 5.0 | 0.00 | 0.00 | 0.00 | 89 | 1012.7 |
| 20260509021205 | 39 | 143 | 2.0 | 3.0 | 0.00 | 0.00 | 0.00 | 89 | 1012.8 |
| 20260509020705 | 39 | 139 | 2.0 | 3.0 | 0.00 | 0.00 | 0.00 | 88 | 1012.7 |
| 20260509020205 | 40 | 128 | 3.0 | 3.0 | 0.00 | 0.00 | 0.00 | 88 | 1012.6 |
| 20260509015205 | 40 | 130 | 2.0 | 3.0 | 0.00 | 0.00 | 0.00 | 86 | 1012.6 |
| 20260509014705 | 40 | 129 | 2.0 | 3.0 | 0.00 | 0.00 | 0.00 | 85 | 1012.5 |
| 20260509014205 | 41 | 160 | 0.0 | 2.0 | 0.00 | 0.00 | 0.00 | 84 | 1012.5 |
| 20260509013705 | 41 | 150 | 1.0 | 3.0 | 0.00 | 0.00 | 0.00 | 84 | 1012.4 |
| 20260509013205 | 41 | 120 | 1.0 | 3.0 | 0.00 | 0.00 | 0.00 | 84 | 1012.3 |
| 20260509012206 | 41 | 197 | 0.0 | 1.0 | 0.00 | 0.00 | 0.00 | 81 | 1012.2 |
| 20260509011205 | 43 | 200 | 1.0 | 2.0 | 0.00 | 0.00 | 0.00 | 78 | 1012.1 |
| 20260509010704 | 44 | 315 | 0.0 | 0.0 | 0.00 | 0.00 | 0.00 | 76 | 1012.0 |
| 20260509010205 | 45 | 287 | 0.0 | 0.0 | 0.00 | 0.00 | 0.00 | 75 | 1011.9 |
| 20260509005705 | 45 | 287 | 0.0 | 0.0 | 0.00 | 0.00 | 0.00 | 75 | 1011.8 |
| 20260509005205 | 45 | 287 | 0.0 | 0.0 | 0.00 | 0.00 | 0.00 | 73 | 1011.6 |
| 20260509004705 | 46 | 287 | 0.0 | 0.0 | 0.00 | 0.00 | 0.00 | 73 | 1011.5 |
| 20260509004205 | 46 | 287 | 0.0 | 0.0 | 0.00 | 0.00 | 0.00 | 72 | 1011.5 |
| 20260509003705 | 47 | 287 | 0.0 | 0.0 | 0.00 | 0.00 | 0.00 | 72 | 1011.5 |
| 20260509003206 | 47 | 287 | 0.0 | 2.0 | 0.00 | 0.00 | 0.00 | 72 | 1011.4 |
| 20260509002204 | 48 | 287 | 1.0 | 2.0 | 0.00 | 0.00 | 0.00 | 69 | 1011.4 |
| 20260509001705 | 48 | 287 | 1.0 | 2.0 | 0.00 | 0.00 | 0.00 | 67 | 1011.3 |
| 20260509001205 | 48 | 287 | 1.0 | 2.0 | 0.00 | 0.00 | 0.00 | 66 | 1011.2 |
| 20260509000205 | 49 | 302 | 1.0 | 3.0 | 0.00 | 0.00 | 0.00 | 64 | 1011.2 |
| 20260508235705 | 49 | 291 | 1.0 | 2.0 | 0.00 | 0.00 | 0.00 | 65 | 1011.1 |
| 20260508235205 | 49 | 304 | 1.0 | 3.0 | 0.00 | 0.00 | 0.00 | 65 | 1011.1 |
| 20260508234705 | 49 | 280 | 3.0 | 6.0 | 0.00 | 0.00 | 0.00 | 65 | 1011.1 |
| 20260508234204 | 50 | 293 | 3.0 | 6.0 | 0.00 | 0.00 | 0.00 | 65 | 1011.0 |
| 20260508233705 | 50 | 280 | 3.0 | 3.0 | 0.00 | 0.00 | 0.00 | 64 | 1011.0 |
| 20260508233205 | 50 | 286 | 2.0 | 3.0 | 0.00 | 0.00 | 0.00 | 64 | 1010.9 |
| 20260508232705 | 50 | 283 | 2.0 | 3.0 | 0.00 | 0.00 | 0.00 | 63 | 1010.9 |
| 20260508232205 | 50 | 268 | 2.0 | 3.0 | 0.00 | 0.00 | 0.00 | 62 | 1010.8 |
| 20260508231705 | 51 | 296 | 3.0 | 8.0 | 0.00 | 0.00 | 0.00 | 62 | 1010.8 |
| 20260508231205 | 51 | 280 | 5.0 | 8.0 | 0.00 | 0.00 | 0.00 | 62 | 1010.8 |
| 20260508230705 | 51 | 290 | 4.0 | 12.0 | 0.00 | 0.00 | 0.00 | 61 | 1010.9 |
| 20260508230205 | 51 | 287 | 5.0 | 9.0 | 0.00 | 0.00 | 0.00 | 61 | 1010.8 |
| 20260508225705 | 52 | 277 | 7.0 | 10.0 | 0.00 | 0.00 | 0.00 | 60 | 1010.8 |
| 20260508225205 | 52 | 274 | 9.0 | 12.0 | 0.00 | 0.00 | 0.00 | 60 | 1010.7 |
| 20260508224705 | 52 | 282 | 6.0 | 10.0 | 0.00 | 0.00 | 0.00 | 61 | 1010.7 |
| 20260508224205 | 52 | 278 | 6.0 | 9.0 | 0.00 | 0.00 | 0.00 | 59 | 1010.6 |
| 20260508223705 | 53 | 284 | 10.0 | 15.0 | 0.00 | 0.00 | 0.00 | 60 | 1010.5 |
| 20260508223205 | 53 | 277 | 8.0 | 13.0 | 0.00 | 0.00 | 0.00 | 61 | 1010.4 |
| 20260508222706 | 53 | 270 | 5.0 | 8.0 | 0.00 | 0.00 | 0.00 | 61 | 1010.4 |
| 20260508222205 | 53 | 275 | 6.0 | 12.0 | 0.00 | 0.00 | 0.00 | 60 | 1010.3 |
| 20260508221704 | 54 | 293 | 8.0 | 12.0 | 0.00 | 0.00 | 0.00 | 62 | 1010.4 |
| 20260508221205 | 54 | 283 | 8.0 | 13.0 | 0.00 | 0.00 | 0.00 | 60 | 1010.5 |
| 20260508220705 | 54 | 278 | 9.0 | 13.0 | 0.00 | 0.00 | 0.00 | 59 | 1010.4 |
| 20260508220205 | 55 | 278 | 8.0 | 12.0 | 0.00 | 0.00 | 0.00 | 60 | 1010.4 |
| 20260508215205 | 55 | 281 | 8.0 | 15.0 | 0.00 | 0.00 | 0.00 | 58 | 1010.3 |
| 20260508214706 | 55 | 273 | 7.0 | 12.0 | 0.00 | 0.00 | 0.00 | 61 | 1010.4 |
| 20260508213205 | 56 | 279 | 6.0 | 10.0 | 0.00 | 0.00 | 0.00 | 57 | 1010.4 |
| 20260508212205 | 57 | 275 | 6.0 | 9.0 | 0.00 | 0.00 | 0.00 | 57 | 1010.4 |
| 20260508211706 | 56 | 279 | 7.0 | 12.0 | 0.00 | 0.00 | 0.00 | 61 | 1010.4 |
| 20260508211205 | 55 | 296 | 6.0 | 12.0 | 0.00 | 0.00 | 0.00 | 60 | 1010.3 |
| 20260508210705 | 56 | 297 | 5.0 | 13.0 | 0.00 | 0.00 | 0.00 | 57 | 1010.3 |
| 20260508210205 | 57 | 287 | 8.0 | 14.0 | 0.00 | 0.00 | 0.00 | 59 | 1010.3 |
| 20260508205705 | 57 | 289 | 8.0 | 16.0 | 0.00 | 0.00 | 0.00 | 58 | 1010.2 |
| 20260508205204 | 58 | 294 | 7.0 | 13.0 | 0.00 | 0.00 | 0.00 | 58 | 1010.3 |
| 20260508203704 | 57 | 288 | 6.0 | 10.0 | 0.00 | 0.00 | 0.00 | 59 | 1010.2 |
| 20260508203205 | 57 | 272 | 8.0 | 12.0 | 0.00 | 0.00 | 0.00 | 58 | 1010.3 |
| 20260508202705 | 57 | 278 | 10.0 | 16.0 | 0.00 | 0.00 | 0.00 | 59 | 1010.3 |
| 20260508202206 | 57 | 289 | 9.0 | 20.0 | 0.00 | 0.00 | 0.00 | 60 | 1010.2 |
| 20260508201704 | 56 | 292 | 7.0 | 14.0 | 0.00 | 0.00 | 0.00 | 59 | 1010.2 |
| 20260508200705 | 56 | 264 | 6.0 | 13.0 | 0.00 | 0.00 | 0.00 | 59 | 1010.3 |
| 20260508200205 | 56 | 274 | 7.0 | 13.0 | 0.00 | 0.00 | 0.00 | 61 | 1010.2 |
| 20260508195204 | 57 | 274 | 8.0 | 15.0 | 0.00 | 0.00 | 0.00 | 59 | 1010.3 |
| 20260508194704 | 57 | 295 | 7.0 | 15.0 | 0.00 | 0.00 | 0.00 | 58 | 1010.2 |
| 20260508194205 | 55 | 293 | 8.0 | 15.0 | 0.00 | 0.00 | 0.00 | 60 | 1010.3 |
| 20260508193705 | 55 | 290 | 5.0 | 8.0 | 0.00 | 0.00 | 0.00 | 64 | 1010.2 |
| 20260508193206 | 54 | 276 | 5.0 | 8.0 | 0.00 | 0.00 | 0.00 | 62 | 1010.3 |
| 20260508192704 | 53 | 268 | 3.0 | 7.0 | 0.00 | 0.00 | 0.00 | 66 | 1010.4 |
| 20260508192204 | 54 | 257 | 5.0 | 12.0 | 0.00 | 0.00 | 0.00 | 62 | 1010.2 |
| 20260508191704 | 56 | 257 | 4.0 | 9.0 | 0.00 | 0.00 | 0.00 | 61 | 1010.3 |
| 20260508191205 | 55 | 274 | 8.0 | 13.0 | 0.00 | 0.00 | 0.00 | 63 | 1010.2 |
| 20260508190705 | 53 | 262 | 3.0 | 9.0 | 0.00 | 0.00 | 0.00 | 67 | 1010.3 |
| 20260508190205 | 53 | 277 | 6.0 | 15.0 | 0.00 | 0.00 | 0.00 | 65 | 1010.3 |
| 20260508185705 | 54 | 259 | 6.0 | 12.0 | 0.00 | 0.00 | 0.00 | 65 | 1010.2 |
| 20260508184205 | 55 | 259 | 6.0 | 9.0 | 0.00 | 0.00 | 0.00 | 63 | 1010.4 |
| 20260508183705 | 55 | 297 | 5.0 | 9.0 | 0.00 | 0.00 | 0.00 | 62 | 1010.5 |
| 20260508183206 | 55 | 296 | 3.0 | 7.0 | 0.00 | 0.00 | 0.00 | 62 | 1010.6 |
| 20260508182704 | 56 | 270 | 6.0 | 12.0 | 0.00 | 0.00 | 0.00 | 61 | 1010.6 |
| 20260508182205 | 55 | 279 | 4.0 | 8.0 | 0.00 | 0.00 | 0.00 | 62 | 1010.7 |
| 20260508181705 | 55 | 246 | 5.0 | 12.0 | 0.00 | 0.00 | 0.00 | 60 | 1010.6 |
| 20260508181205 | 55 | 262 | 5.0 | 12.0 | 0.00 | 0.00 | 0.00 | 63 | 1010.8 |
| 20260508180704 | 54 | 285 | 5.0 | 9.0 | 0.00 | 0.00 | 0.00 | 65 | 1010.7 |
| 20260508180204 | 54 | 268 | 7.0 | 12.0 | 0.00 | 0.00 | 0.00 | 63 | 1010.8 |
| 20260508175705 | 54 | 275 | 3.0 | 10.0 | 0.00 | 0.00 | 0.00 | 61 | 1010.8 |
| 20260508175206 | 55 | 275 | 7.0 | 10.0 | 0.00 | 0.00 | 0.00 | 61 | 1010.8 |
| 20260508174705 | 54 | 278 | 6.0 | 10.0 | 0.00 | 0.00 | 0.00 | 64 | 1010.8 |
| 20260508174205 | 53 | 272 | 7.0 | 12.0 | 0.00 | 0.00 | 0.00 | 63 | 1010.8 |
| 20260508173704 | 53 | 281 | 6.0 | 10.0 | 0.00 | 0.00 | 0.00 | 65 | 1010.9 |
| 20260508172705 | 53 | 286 | 7.0 | 12.0 | 0.00 | 0.00 | 0.00 | 67 | 1011.0 |
| 20260508172204 | 52 | 288 | 9.0 | 13.0 | 0.00 | 0.00 | 0.00 | 67 | 1010.9 |
| 20260508171704 | 53 | 274 | 9.0 | 13.0 | 0.00 | 0.00 | 0.00 | 66 | 1010.9 |
| 20260508171205 | 53 | 279 | 7.0 | 12.0 | 0.00 | 0.00 | 0.00 | 65 | 1010.9 |
| 20260508170704 | 53 | 285 | 9.0 | 14.0 | 0.00 | 0.00 | 0.00 | 64 | 1010.9 |
| 20260508170205 | 53 | 286 | 7.0 | 14.0 | 0.00 | 0.00 | 0.00 | 63 | 1010.9 |
| 20260508165705 | 53 | 273 | 10.0 | 16.0 | 0.00 | 0.00 | 0.00 | 61 | 1010.7 |
| 20260508165205 | 53 | 277 | 7.0 | 10.0 | 0.00 | 0.00 | 0.00 | 60 | 1010.8 |
| 20260508163705 | 52 | 263 | 7.0 | 10.0 | 0.00 | 0.00 | 0.00 | 64 | 1010.9 |
| 20260508163205 | 51 | 269 | 7.0 | 12.0 | 0.00 | 0.00 | 0.00 | 64 | 1011.0 |
| 20260508162706 | 51 | 279 | 7.0 | 14.0 | 0.00 | 0.00 | 0.00 | 61 | 1011.1 |
| 20260508162205 | 51 | 275 | 7.0 | 12.0 | 0.00 | 0.00 | 0.00 | 59 | 1011.0 |
| 20260508161706 | 52 | 272 | 10.0 | 16.0 | 0.00 | 0.00 | 0.00 | 57 | 1011.1 |
| 20260508161205 | 53 | 298 | 5.0 | 10.0 | 0.00 | 0.00 | 0.00 | 60 | 1010.9 |
| 20260508160704 | 53 | 297 | 5.0 | 10.0 | 0.00 | 0.00 | 0.00 | 57 | 1011.0 |
| 20260508155704 | 54 | 289 | 3.0 | 9.0 | 0.00 | 0.00 | 0.00 | 57 | 1010.9 |
| 20260508155204 | 55 | 294 | 9.0 | 13.0 | 0.00 | 0.00 | 0.00 | 54 | 1010.8 |
| 20260508154705 | 55 | 296 | 5.0 | 10.0 | 0.00 | 0.00 | 0.00 | 55 | 1010.8 |
| 20260508153704 | 55 | 289 | 6.0 | 12.0 | 0.00 | 0.00 | 0.00 | 57 | 1010.7 |
| 20260508153204 | 54 | 324 | 3.0 | 9.0 | 0.00 | 0.00 | 0.00 | 56 | 1010.8 |
| 20260508152705 | 54 | 284 | 7.0 | 13.0 | 0.00 | 0.00 | 0.00 | 57 | 1010.7 |
| 20260508152205 | 54 | 229 | 7.0 | 12.0 | 0.00 | 0.00 | 0.00 | 54 | 1010.6 |
| 20260508151704 | 55 | 303 | 2.0 | 9.0 | 0.00 | 0.00 | 0.00 | 54 | 1010.6 |
| 20260508150705 | 54 | 276 | 4.0 | 10.0 | 0.00 | 0.00 | 0.00 | 55 | 1010.6 |
| 20260508150205 | 54 | 317 | 3.0 | 7.0 | 0.00 | 0.00 | 0.00 | 57 | 1010.6 |
| 20260508145705 | 55 | 273 | 6.0 | 12.0 | 0.00 | 0.00 | 0.00 | 52 | 1010.5 |
| 20260508145205 | 56 | 280 | 7.0 | 10.0 | 0.00 | 0.00 | 0.00 | 55 | 1010.5 |
| 20260508144706 | 55 | 290 | 3.0 | 7.0 | 0.00 | 0.00 | 0.00 | 56 | 1010.7 |
| 20260508144204 | 55 | 281 | 3.0 | 12.0 | 0.00 | 0.00 | 0.00 | 55 | 1010.7 |
| 20260508143204 | 55 | 300 | 2.0 | 7.0 | 0.00 | 0.00 | 0.00 | 59 | 1010.8 |
| 20260508142705 | 54 | 310 | 2.0 | 6.0 | 0.00 | 0.00 | 0.00 | 56 | 1010.7 |
| 20260508141704 | 53 | 319 | 2.0 | 6.0 | 0.00 | 0.00 | 0.00 | 60 | 1010.8 |
| 20260508141205 | 53 | 290 | 5.0 | 9.0 | 0.00 | 0.00 | 0.00 | 59 | 1010.7 |
| 20260508140704 | 53 | 276 | 4.0 | 8.0 | 0.00 | 0.00 | 0.00 | 59 | 1010.6 |
| 20260508140206 | 53 | 311 | 2.0 | 7.0 | 0.00 | 0.00 | 0.00 | 62 | 1010.7 |
| 20260508135704 | 53 | 309 | 4.0 | 8.0 | 0.00 | 0.00 | 0.00 | 63 | 1010.8 |
| 20260508135204 | 52 | 300 | 2.0 | 6.0 | 0.00 | 0.00 | 0.00 | 64 | 1010.8 |
| 20260508134705 | 52 | 317 | 3.0 | 7.0 | 0.00 | 0.00 | 0.00 | 66 | 1010.8 |
| 20260508134206 | 52 | 298 | 4.0 | 7.0 | 0.00 | 0.00 | 0.00 | 65 | 1010.9 |
| 20260508133705 | 52 | 308 | 4.0 | 7.0 | 0.00 | 0.00 | 0.00 | 67 | 1010.9 |
| 20260508133205 | 51 | 298 | 5.0 | 9.0 | 0.00 | 0.00 | 0.00 | 67 | 1011.1 |
| 20260508132705 | 51 | 270 | 4.0 | 8.0 | 0.00 | 0.00 | 0.00 | 69 | 1011.1 |
| 20260508132204 | 51 | 312 | 3.0 | 7.0 | 0.00 | 0.00 | 0.00 | 67 | 1011.1 |
| 20260508131704 | 51 | 295 | 5.0 | 8.0 | 0.00 | 0.00 | 0.00 | 67 | 1011.3 |
| 20260508131204 | 50 | 279 | 2.0 | 6.0 | 0.00 | 0.00 | 0.00 | 71 | 1011.4 |
| 20260508130704 | 50 | 284 | 3.0 | 10.0 | 0.00 | 0.00 | 0.00 | 70 | 1011.3 |
| 20260508130204 | 50 | 291 | 5.0 | 8.0 | 0.00 | 0.00 | 0.00 | 71 | 1011.4 |
| 20260508125705 | 50 | 279 | 3.0 | 7.0 | 0.00 | 0.00 | 0.00 | 71 | 1011.3 |
| 20260508125205 | 50 | 274 | 4.0 | 7.0 | 0.00 | 0.00 | 0.00 | 73 | 1011.3 |
| 20260508124704 | 49 | 290 | 3.0 | 7.0 | 0.00 | 0.00 | 0.00 | 75 | 1011.2 |
| 20260508124204 | 49 | 272 | 5.0 | 9.0 | 0.00 | 0.00 | 0.00 | 73 | 1011.3 |
| 20260508123706 | 48 | 293 | 6.0 | 12.0 | 0.00 | 0.00 | 0.00 | 76 | 1011.3 |
| 20260508123204 | 48 | 286 | 2.0 | 7.0 | 0.00 | 0.00 | 0.00 | 77 | 1011.3 |
| 20260508122704 | 47 | 296 | 5.0 | 10.0 | 0.00 | 0.00 | 0.00 | 78 | 1011.4 |
| 20260508122205 | 47 | 301 | 5.0 | 12.0 | 0.00 | 0.00 | 0.00 | 80 | 1011.4 |
| 20260508121704 | 47 | 280 | 5.0 | 9.0 | 0.00 | 0.00 | 0.00 | 78 | 1011.4 |
| 20260508120704 | 46 | 275 | 6.0 | 7.0 | 0.00 | 0.00 | 0.00 | 80 | 1011.3 |
| 20260508120205 | 46 | 270 | 4.0 | 7.0 | 0.00 | 0.00 | 0.00 | 81 | 1011.3 |
| 20260508115205 | 44 | 181 | 1.0 | 3.0 | 0.00 | 0.00 | 0.00 | 83 | 1011.2 |
| 20260508114704 | 43 | 293 | 1.0 | 3.0 | 0.00 | 0.00 | 0.00 | 87 | 1011.2 |
| 20260508113704 | 42 | 294 | 1.0 | 3.0 | 0.00 | 0.00 | 0.00 | 86 | 1011.3 |
| 20260508112704 | 43 | 266 | 5.0 | 7.0 | 0.00 | 0.00 | 0.00 | 85 | 1011.3 |
| 20260508112204 | 43 | 283 | 2.0 | 3.0 | 0.00 | 0.00 | 0.00 | 86 | 1011.2 |
| 20260508111704 | 43 | 289 | 3.0 | 6.0 | 0.00 | 0.00 | 0.00 | 87 | 1011.2 |
| 20260508111204 | 43 | 279 | 8.0 | 12.0 | 0.00 | 0.00 | 0.00 | 87 | 1011.2 |
| 20260508110704 | 42 | 293 | 4.0 | 8.0 | 0.00 | 0.00 | 0.00 | 86 | 1011.3 |
| 20260508110204 | 42 | 287 | 5.0 | 12.0 | 0.00 | 0.00 | 0.00 | 87 | 1011.3 |
| 20260508105705 | 42 | 284 | 8.0 | 12.0 | 0.00 | 0.00 | 0.00 | 86 | 1011.2 |
| 20260508104704 | 41 | 290 | 7.0 | 10.0 | 0.00 | 0.00 | 0.00 | 87 | 1011.1 |
| 20260508104204 | 40 | 279 | 6.0 | 8.0 | 0.00 | 0.00 | 0.00 | 89 | 1011.0 |
| 20260508103704 | 40 | 288 | 3.0 | 8.0 | 0.00 | 0.00 | 0.00 | 90 | 1010.9 |
| 20260508103204 | 39 | 290 | 3.0 | 7.0 | 0.00 | 0.00 | 0.00 | 91 | 1010.9 |
| 20260508102704 | 39 | 275 | 4.0 | 9.0 | 0.00 | 0.00 | 0.00 | 92 | 1010.8 |
| 20260508102205 | 39 | 276 | 3.0 | 8.0 | 0.00 | 0.00 | 0.00 | 94 | 1010.7 |
| 20260508101705 | 38 | 280 | 4.0 | 8.0 | 0.00 | 0.00 | 0.00 | 95 | 1010.6 |
| 20260508101204 | 38 | 273 | 2.0 | 6.0 | 0.00 | 0.01 | 0.00 | 95 | 1010.6 |
| 20260508100204 | 38 | 292 | 2.0 | 3.0 | 0.00 | 0.01 | 0.00 | 95 | 1010.4 |
| 20260508095705 | 38 | 288 | 1.0 | 2.0 | 0.00 | 0.02 | 0.00 | 95 | 1010.4 |
| 20260508095204 | 38 | 264 | 1.0 | 3.0 | 0.00 | 0.02 | 0.00 | 100 | 1010.4 |
| 20260508094205 | 38 | 265 | 1.0 | 2.0 | 0.00 | 0.02 | 0.00 | 95 | 1010.3 |
| 20260508093704 | 38 | 257 | 3.0 | 6.0 | 0.00 | 0.02 | 0.00 | 94 | 1010.3 |
| 20260508093204 | 37 | 235 | 2.0 | 3.0 | 0.00 | 0.02 | 0.00 | 95 | 1010.3 |
| 20260508092705 | 37 | 193 | 0.0 | 2.0 | 0.00 | 0.04 | 0.00 | 95 | 1010.3 |
| 20260508092204 | 37 | 192 | 1.0 | 2.0 | 0.00 | 0.05 | 0.00 | 95 | 1010.2 |
| 20260508091704 | 37 | 187 | 1.0 | 2.0 | 0.00 | 0.05 | 0.00 | 95 | 1010.2 |
| 20260508090205 | 37 | 125 | 1.0 | 3.0 | 0.00 | 0.06 | 0.00 | 95 | 1010.0 |
| 20260508085705 | 36 | 136 | 2.0 | 3.0 | 0.00 | 0.06 | 0.00 | 95 | 1010.0 |
| 20260508084704 | 36 | 115 | 0.0 | 1.0 | 0.00 | 0.07 | 0.00 | 95 | 1010.0 |